Regional Weather Roundup
Issued by NWS

Home | Current Version | Previous Version | Text Only | Print | Product List | Glossary Off
Versions: 1 2 3 4 5 6 7 8 9 10 11 12 13 14 15 16 17 18 19 20 21 22 23 24 25 26 27 28 29 30 31 32 33 34 35 36 37 38 39 40 41 42 43 44 45 46 47 48 49 50

000
ASUS43 KLMK 252202
RWRKY
KENTUCKY REGIONAL WEATHER ROUNDUP
NATIONAL WEATHER SERVICE LOUISVILLE KY
500 PM EST SAT FEB 25 2017

NOTE "FAIR" INDICATES FEW OR NO CLOUDS BELOW 12,000 FEET
WITH NO SIGNIFICANT WEATHER AND/OR OBSTRUCTIONS TO VISIBILITY.

KYZ001>023-026-027-061>063-070>075-252300-
WESTERN AND SOUTH CENTRAL KENTUCKY

CITY           SKY/WX    TMP DP  RH WIND       PRES   REMARKS
PADUCAH        SUNNY     44  15  31 NW10      30.09R
HENDERSON      SUNNY     39  18  41 W16G22    30.07S WCI  30
OWENSBORO      MOSUNNY   40  18  41 W16G26    30.07R WCI  31
HOPKINSVILLE   SUNNY     43  19  38 NW10      30.06R
BOWLING GREEN  SUNNY     43  18  36 NW12      30.06R
GLASGOW        NOT AVBL
$$

KYZ024-025-028>034-038-045-046-053-252300-
NORTH CENTRAL KENTUCKY

CITY           SKY/WX    TMP DP  RH WIND       PRES   REMARKS
LOUISVILLE/SDF MOSUNNY   40  17  39 W12       30.02R WCI  33
LOUISVILLE/LOU MOSUNNY   40  18  41 NW14      30.02R WCI  32
FORT KNOX      MOSUNNY   38  19  46 W16       30.01R WCI  29
$$

KYZ035>037-039>044-047>052-055>060-089>105-252300-
NORTHEAST KENTUCKY

CITY           SKY/WX    TMP DP  RH WIND       PRES   REMARKS
LEXINGTON      PTSUNNY   36  19  50 W16G25    29.99R WCI  26
COVINGTON      CLOUDY    32  18  56 W18G24    29.97R WCI  20
FRANKFORT      CLOUDY    38  17  42 W12       29.99R WCI  30
$$

KYZ054-064>069-076>088-106>120-252300-
SOUTHEAST KENTUCKY

CITY           SKY/WX    TMP DP  RH WIND       PRES   REMARKS
JACKSON        MOSUNNY   38  21  50 NW15G21   29.94R WCI  29
LONDON         MOSUNNY   41  20  43 W15       29.97R
SOMERSET       MOSUNNY   39  21  48 W13       30.02R WCI  32
MIDDLESBORO    MOSUNNY   46  22  39 N12       29.95R
MONTICELLO     PTCLDY    42  21  43 W16G25    30.02R
$$




USA.gov is the U.S. government's official web portal to all federal, state and local government web resources and services.